Regional Weather Roundup
Issued by NWS Charleston, SC

Current Version | Previous Version | Graphics & Text | Print | Product List | Glossary On
Versions: 1 2 3 4 5 6 7 8 9 10 11 12 13 14 15 16 17 18 19 20 21 22 23 24 25 26 27 28 29 30 31 32 33 34 35 36 37 38 39 40 41 42 43 44 45 46 47 48 49 50
000
ASUS42 KCHS 300310
RWRCHS
REGIONAL WEATHER ROUNDUP
NATIONAL WEATHER SERVICE CHARLESTON SC
1100 PM EDT MON SEP 29 2014

NOTE: "FAIR" INDICATES FEW OR NO CLOUDS BELOW 12,000 FEET WITH NO
SIGNIFICANT WEATHER AND/OR OBSTRUCTIONS TO VISIBILITY.

NOT ALL STATIONS ARE QUALITY CONTROLLED BY THE NATIONAL
WEATHER SERVICE. USE DATA WITH CAUTION...ESPECIALLY
DEWPOINT OBSERVATIONS.

SCZ027-030-031-034>040-042>050-300400-
...SOUTH CAROLINA...

CITY           SKY/WX    TMP DP  RH WIND       PRES   REMARKS
N CHARLESTON   CLOUDY    67  63  87 NE7       29.94S
WATERFRONT PRK NOT AVBL
FORT JOHNSON   NOT AVBL
MOUNT PLEASANT LGT RAIN  64  64 100 N5        29.94S
JOHNS ISLAND   CLOUDY    66  66 100 NE5       29.93F
PINOPOLIS        N/A     66  63  88 NE9       29.88S
MONCKS CORNER  DRIZZLE   64  64 100 NE5       29.95F
SUMMERVILLE    DRIZZLE   64  64 100 NE3       29.96S
BEAUFORT MCAS  CLOUDY    68  66  93 NE9       29.93S
BEAUFORT ARPT  CLOUDY    68  68 100 NE15      29.92S
HILTON HEAD IS CLOUDY    70  68  94 N8        29.92F
GEORGETOWN     NOT AVBL
WALTERBORO     RAIN      68 N/A N/A NE3       29.95F
ORANGEBURG     LGT RAIN  65  62  90 E7        29.97F
BARNWELL       CLOUDY    66  64  94 NE7       29.97F
AIKEN          CLOUDY    68  68 100 NE3       30.00F
MANNING        CLOUDY    64 N/A N/A CALM      29.97S
KINGSTREE      NOT AVBL
COLUMBIA       CLOUDY    69  64  84 E6        29.97S
SUMTER         CLOUDY    64  59  84 E2        29.96F
FLORENCE       CLEAR     64  62  93 CALM      29.97F
MYRTLE BEACH   CLOUDY    64  61  88 N10       29.95F
N MYRTLE BEACH LGT RAIN  63  60  90 NE8       29.95F

$$

GAZ063-065-086>088-099>101-113>116-118-119-134-136>141-150-300400-
...GEORGIA...

CITY           SKY/WX    TMP DP  RH WIND       PRES   REMARKS
SAVANNAH ARPT  CLOUDY    69  65  86 N9        29.92S
HUNTER AAF     CLOUDY    70  68  94 NE8       29.90S
FORT STEWART   CLOUDY    68  68 100 N9        29.90F
STATESBORO     NOT AVBL
SYLVANIA       CLOUDY    70  69  98 NE5       29.95S FOG
CLAXTON          N/A     68  68 100 NE5       29.93F HAZE
THOMSON        CLOUDY    69  69 100 E5        30.01F
AUGUSTA-BUSH   CLOUDY    69  64  84 CALM      29.96S
AUGUSTA-DANIEL CLOUDY    70  64  81 E5        29.97F
SWAINSBORO     CLOUDY    70  70 100 E9        29.95F
VIDALIA        CLOUDY    68  68 100 NE7       29.94S
ALMA           CLOUDY    70  69  97 VRB6      29.89F
WAYCROSS       CLOUDY    75  74  97 NE7       29.87F
JESUP          CLOUDY    73  72  94 NE7       29.90S FOG
BRUNSWICK      CLOUDY    73  70  88 N6        29.88F
SAINT SIMONS   CLOUDY    73  72  96 NE6       29.86F

$$

SCZ027-028-034-036>038-045-046-048>050-GAZ119-141-300400-
...LAKE AND SUPPLEMENTAL COASTAL OBSERVATIONS...

STATION/POSITION TIME  TEMP    WIND        PRES    WAVE   SWELL
                       AIR SEA DIR/SP/G            HT/PER HT/PER/DIR
                 (UTC) (F)     (DEG/KT/KT) (MB)    (FT/S) (FT/S/D)
UPR LAKE MARION  NOT AVBL
WINYAH BAY       0200   65      20/  5     1014.0S
LAKE MURRAY      0200   68      60/  2/  6 1014.6S
ACE BASIN NERRS  0200   67      30/  3     1013.0S
FORT PULASKI     0300           20/ 10/ 14 1012.9F
SAPELO ISLAND    NOT AVBL

$$

ANZ835-935-AMZ111-154-330-350-352-354-374-450-454-472-300400-
...C-MAN AND BUOY OBSERVATIONS...

STATION/POSITION TIME  TEMP    WIND        PRES    WAVE   SWELL
                       AIR SEA DIR/SP/G            HT/PER HT/PER/DIR
                 (UTC) (F)     (DEG/KT/KT) (MB)    (FT/S) (FT/S/D)
FOLLY BEACH CMAN 0200   69      30/ 15/ 18 1014.0R
BUOY 41004       0300   75 81   50/ 17/ 21 1011.4F   6/ 6   2/15
BUOY 41008       0300   75 79  100/  8/ 10 1011.4F   4/ 6   3/ 40/ 6
5E ST. MARYS GA  0300      78                N/A     3/ 8
FRYING PAN BUOY  NOT AVBL
BUOY 41025       0300   73      10/ 12/ 14 1013.1F   3/ 8   2/ 60/ 8
CAPE LOOKOUT NC  0200   71      10/  7/  9 1013.8F
BUOY 41002       0239   80 81  140/  8/ 10 1013.0F   3/ 8   3/ 70/ 8
BUOY 41010       0300   76 85  320/ 12/ 14 1012.0R   3/ 8   3/100/ 8
BUOY 41012       NOT AVBL
ST AUGUSTINE FL  0300   73     200/  3/  3 1010.6F
CAPERS NEARSHORE 0200   69      40/ 17/ 19   N/A
FRIPP NEARSHORE  NOT AVBL


$$



USA.gov is the U.S. government's official web portal to all federal, state and local government web resources and services.